SCP
0 0 0 0 0 0 0 0 0 0 0 0 0 0 0 0 0 0 0 0 0 0 0 0 0 0 0 0 0 0 0 0 0 0 0 0 0 0 0 0 0 0 0 0 0 0 0 1 0 3 1 1 1 1
0 0 0 0 0 0 0 0 0 0 0 0 0 0 0 0 0 0 0 0 0 0 0 0 0 -0 -0 0 0 0 0 -0 0 0 0 0 0 0 0 0 0 0 1 1 1 1 1 0 0 0 0 0 0 0
0 0 0 0 0 0 0 0 0 0 0 0 0 0 0 0 0 0 0 0 0 0 0 0 0 0 0 -0 0 0 0 0 0 0 0 0 0 0 0 0 0 0 0 0 0 0 0 1 1 0 0 0 0 0
0 0 0 0 0 0 0 0 0 0 0 0 0 0 0 0 0 0 0 0 0 0 0 0 0 0 0 0 0 0 0 0 0 0 0 0 0 0 0 0 0 0 0 0 0 0 0 0 0 0 0 0 0 0
0 0 0 0 0 0 0 0 0 0 0 0 0 0 0 0 0 0 0 0 0 0 0 0 0 0 0 0 0 0 0 0 0 0 0 0 0 0 0 0 0 0 0 0 0 0 0 0 0 0 0 0 0 0
0 0 0 0 0 0 0 0 0 0 0 0 0 0 0 0 0 0 0 0 0 0 0 0 0 0 0 0 0 0 0 0 0 0 0 0 0 0 0 0 0 0 0 0 0 0 0 0 0 0 0 0 0 0
0 0 0 0 0 0 0 0 0 0 0 0 0 0 0 0 0 0 0 0 0 0 0 0 0 0 0 0 0 0 0 0 0 0 0 0 0 0 0 0 0 0 0 0 0 0 0 0 0 0 0 0 0 0
0 0 0 0 0 0 0 0 0 0 0 0 0 0 0 0 0 0 0 0 0 0 0 0 0 0 0 0 0 0 0 0 0 0 0 -0 0 0 0 0 0 0 0 0 0 0 0 0 0 0 0 0 0 0
0 0 0 0 0 0 0 0 0 0 0 0 0 0 0 0 0 0 0 0 0 0 0 0 0 0 0 0 0 0 0 0 0 0 0 0 0 0 0 0 0 0 0 0 0 0 0 0 0 0 0 0 0 0
0 0 0 0 0 0 0 0 0 0 0 0 0 0 0 0 0 0 0 0 0 0 0 0 0 0 0 0 0 0 0 0 0 0 0 0 0 0 0 0 0 0 0 0 0 0 0 0 0 0 0 0 0 0
0 0 0 0 0 0 0 0 0 0 0 0 0 0 0 0 0 0 0 0 0 0 0 0 0 0 0 0 0 0 0 0 0 0 0 0 0 0 0 0 0 0 0 0 0 0 0 0 0 0 0 0 0 0
0 0 0 0 0 0 0 -0 -0 0 0 0 0 0 0 0 0 0 0 0 0 0 0 0 0 0 0 0 0 0 0 0 0 0 0 0 0 0 0 0 0 0 0 0 0 0 0 0 0 0 0 0 0 0
0 0 0 0 0 0 0 0 0 0 0 0 0 0 0 0 0 0 0 0 0 0 0 0 0 0 0 0 0 0 0 0 0 0 0 0 0 0 0 0 0 0 0 0 0 0 0 0 0 0 0 0 0 0
0 0 0 0 0 0 0 0 0 0 0 0 0 0 0 0 0 0 0 0 0 0 0 0 0 0 0 0 0 0 0 0 0 0 0 0 0 0 0 0 0 0 0 0 0 0 0 0 0 0 0 0 0 0
0 0 0 0 0 0 0 0 0 0 0 0 0 0 0 0 0 0 0 0 0 0 0 0 0 0 0 0 0 0 0 0 0 0 0 0 0 0 0 0 0 0 0 0 0 0 0 0 0 0 0 0 0 0
0 0 0 0 0 0 0 0 0 0 0 0 0 0 0 0 0 0 0 0 0 0 0 0 0 0 0 0 0 0 0 0 0 0 0 0 0 0 0 0 0 0 0 0 0 0 0 0 0 0 0 0 0 0
0 0 0 0 0 0 0 0 0 0 0 0 0 0 0 0 0 0 0 0 0 0 0 0 0 0 0 0 0 0 0 0 0 0 0 0 0 0 0 0 0 0 0 -0 -0 0 0 0 0 0 0 0 0 0
0 0 0 0 0 0 0 0 0 0 0 0 0 0 0 0 0 0 0 0 0 0 0 0 0 0 0 0 0 0 0 0 0 0 0 0 0 0 0 0 0 0 0 0 0 0 0 0 0 0 0 0 0 0
0 0 0 0 0 0 0 0 0 0 0 0 0 0 0 -0 0 0 0 0 0 0 0 0 0 0 0 0 0 0 0 0 0 0 0 0 0 0 0 0 0 0 0 0 0 0 0 0 0 0 0 0 0 0
0 0 0 0 0 0 0 0 0 0 0 0 0 0 -0 0 0 0 0 0 0 0 0 0 0 0 0 0 0 0 0 0 0 0 0 0 0 0 0 0 0 0 0 0 0 0 0 0 0 0 0 0 0 0
0 0 0 0 0 0 0 0 0 0 0 0 0 -0 0 0 0 0 0 0 0 0 0 0 0 0 0 0 0 0 0 0 0 0 0 0 0 0 0 0 0 0 0 0 0 0 0 0 0 0 0 0 0 0
0 0 0 0 0 0 0 0 0 0 0 0 -0 0 0 0 0 0 0 0 0 0 0 0 0 0 0 0 0 0 0 0 0 0 0 0 0 0 0 0 0 0 0 0 0 0 0 0 0 0 0 0 0 0
0 0 0 0 0 0 0 0 0 0 -0 -0 0 0 0 0 0 0 0 0 0 0 0 0 0 0 0 0 0 0 0 0 0 0 0 0 0 0 0 0 0 0 0 0 0 0 0 0 0 0 0 0 0 0
0 0 -0 0 0 0 0 0 0 0 0 0 0 0 0 0 0 0 0 0 0 0 0 0 0 0 0 0 0 0 0 0 0 0 0 0 0 0 0 0 0 0 0 0 0 0 0 0 0 0 0 0 0 0
-0 0 0 0 0 0 0 0 0 0 0 0 0 0 0 0 0 0 0 0 0 0 0 0 0 0 0 0 0 0 0 0 0 0 0 0 0 0 0 0 0 0 0 -0 0 0 0 0 0 0 -0 0 0 -0
0 0 0 0 0 0 0 0 0 0 0 0 0 0 0 0 0 0 0 0 0 0 0 0 0 0 0 0 0 0 0 0 0 0 0 0 0 0 0 0 -0 -0 0 0 0 0 -0 -0 -0 -0 0 0 0 0
0 0 0 0 0 0 0 0 0 0 0 0 0 0 0 0 0 0 0 0 0 0 0 0 0 0 0 0 0 0 0 0 0 0 0 -0 -0 -0 -0 0 0 -0 0 -0 -0 0 0 -0 -0 -0 0 0 0 0
0 0 0 0 0 0 0 0 0 0 0 0 0 0 0 0 0 0 0 0 0 0 0 0 0 0 0 0 0 0 0 0 -0 -0 -0 0 -0 -0 -0 0 0 0 0 0 0 0 0 0 0 0 0 0 0 0
0 0 0 0 0 0 0 0 0 0 0 0 0 0 -0 -0 -0 -0 -0 0 0 0 0 0 -0 -0 0 0 -0 -0 -0 -0 -0 0 0 0 0 0 0 0 0 0 0 0 0 0 0 0 0 -0 0 0 0 0
0 0 0 0 0 0 0 0 0 0 0 0 0 -0 0 -0 0 0 0 0 -0 -0 -0 -0 -0 -0 -0 -0 -0 -0 0 -0 -0 -0 0 -0 -0 0 0 0 0 0 0 0 0 0 0 0 0 0 0 0 0 0
0 0 0 0 0 0 0 0 0 0 0 0 0 -0 -0 0 0 -0 -0 -0 0 0 0 0 -0 -0 -0 -0 -0 -0 -0 0 0 0 0 -0 -0 0 0 0 0 0 0 0 0 0 0 0 0 0 0 0 0 0
0 0 0 0 0 -0 0 0 0 0 0 0 -0 -0 0 0 0 0 0 0 0 0 -0 -0 0 0 -0 -0 0 0 0 0 -0 -0 -0 0 0 0 0 0 0 0 0 0 0 0 0 0 0 0 0 0 0 0
0 0 0 0 0 0 0 0 0 0 0 0 0 0 0 0 0 -0 0 0 -0 -0 -0 -0 -0 0 0 0 0 0 0 0 0 0 0 0 0 0 0 0 0 0 0 0 0 0 0 0 0 0 0 0 0 0
Wind_Speed_500mb
28 27 25 24 27 26 28 34 33 33 31 24 24 21 18 16 12 11 13 13 11 15 30 24 20 18 19 9 10 16 5 3 9 7 6 2 7 4 5 4 9 13 11 14 14 14 25 14 8 8 10 7 17 20
27 26 25 25 26 27 28 33 35 35 33 27 25 23 19 16 13 11 7 11 14 18 22 27 39 43 42 32 24 5 1 5 6 6 3 3 9 6 6 11 6 9 7 10 6 10 7 12 18 11 12 15 18 22
25 24 24 22 21 27 27 34 36 38 35 29 27 28 21 16 13 12 13 14 14 19 34 23 14 15 21 21 19 10 3 7 3 5 6 2 8 7 12 10 4 7 4 5 8 8 9 5 3 7 17 16 17 19
25 22 22 20 19 28 29 34 33 35 38 33 28 29 24 19 13 13 13 14 12 12 12 0 6 12 16 16 15 20 13 10 9 8 11 8 10 6 6 7 11 7 11 7 5 7 8 9 10 11 14 12 16 22
25 22 20 19 24 29 30 34 36 37 35 33 28 29 26 20 13 13 17 18 20 8 13 21 31 12 13 17 14 13 10 8 11 12 10 10 6 8 6 8 9 16 4 7 9 10 5 8 12 15 13 14 19 24
25 22 19 19 22 30 32 33 32 30 39 33 27 28 24 16 12 8 6 9 22 21 11 7 9 7 9 19 13 10 8 9 13 12 13 6 1 8 9 14 14 10 7 9 8 8 5 7 7 11 13 17 19 20
25 23 23 20 20 32 35 34 35 35 38 32 28 28 22 16 14 9 4 7 6 16 9 11 7 9 14 15 11 9 9 9 11 7 15 13 11 9 8 13 20 12 9 7 6 7 3 6 12 19 18 17 16 13
26 26 24 21 23 30 33 43 30 40 38 33 31 25 17 13 13 11 19 15 6 8 10 7 7 12 19 17 15 12 11 12 11 6 6 14 8 10 9 13 6 6 5 0 3 4 11 18 19 18 14 13 10 9
29 28 25 21 23 28 30 34 39 43 40 36 31 21 15 8 9 12 10 12 17 10 10 8 9 9 22 12 7 11 8 10 5 10 8 7 10 10 10 3 2 4 6 3 4 8 8 12 16 10 9 8 4 3
30 29 26 23 26 30 35 38 40 47 44 40 30 13 10 11 14 12 2 4 9 12 13 12 12 8 21 21 20 12 12 5 9 6 3 10 7 12 5 5 9 13 15 15 12 7 11 11 10 14 9 5 12 20
29 29 28 26 29 38 42 46 54 56 49 40 16 9 8 19 8 11 9 10 14 10 16 17 20 8 13 15 11 8 5 5 7 9 7 7 7 13 3 4 5 5 5 11 6 1 5 5 6 9 11 14 17 19
27 27 26 29 33 47 46 53 62 58 41 36 23 16 15 11 11 10 9 11 11 9 13 20 17 14 8 4 9 10 6 6 4 7 7 7 10 12 8 7 7 5 5 8 8 6 5 9 10 10 11 10 12 11
28 28 25 28 35 44 41 56 63 54 43 45 13 15 12 12 4 13 19 11 9 11 13 17 13 12 8 10 5 8 9 5 5 7 6 7 18 12 7 5 6 6 5 7 7 9 11 9 6 4 4 4 5 8
29 29 31 35 39 44 46 65 66 62 43 12 14 5 12 11 12 12 16 14 6 1 10 19 20 11 7 11 3 7 4 6 6 7 5 10 15 11 6 4 4 6 7 8 7 7 7 8 7 5 6 3 3 4
31 37 40 40 40 51 56 67 62 58 12 12 12 10 16 21 10 11 18 15 12 5 14 16 9 9 8 7 4 4 8 8 5 2 5 17 16 13 10 7 5 6 7 7 7 6 1 6 8 2 2 3 4 6
36 45 48 45 45 56 68 65 74 33 4 7 11 12 11 14 19 22 18 20 17 10 16 15 10 10 11 5 11 13 6 7 7 7 16 21 20 16 13 10 6 6 6 4 4 3 8 10 8 7 3 1 2 3
45 26 50 56 50 63 76 63 34 11 8 8 15 22 19 14 14 16 12 21 18 17 14 11 11 9 6 9 9 2 4 6 14 17 17 21 24 21 14 9 5 5 2 8 8 8 8 6 7 10 8 3 1 2
36 36 52 68 69 69 57 23 11 12 13 20 15 9 12 16 19 19 12 19 19 21 17 6 10 10 7 8 6 9 11 13 11 16 20 25 22 18 17 15 10 3 4 8 10 10 10 9 10 11 10 7 2 3
32 50 67 79 91 49 13 19 9 8 19 13 15 16 12 15 17 19 15 18 17 16 11 10 5 7 6 4 10 14 17 15 15 15 18 20 19 19 21 19 13 9 8 10 9 10 10 12 14 14 12 6 7 7
41 62 90 77 53 12 9 11 15 6 9 11 8 9 8 6 9 8 15 21 18 13 6 3 5 10 11 14 12 12 12 12 15 16 15 17 17 18 19 19 18 13 10 10 12 15 15 14 17 20 14 12 12 9
75 78 77 58 27 5 7 11 12 8 6 4 5 4 11 7 7 16 17 14 8 4 8 11 16 15 18 19 17 17 15 11 8 7 10 12 16 19 19 18 17 16 16 16 17 17 18 17 19 22 17 16 14 13
62 65 57 32 8 4 8 13 6 10 5 4 14 7 10 8 9 13 12 6 10 11 13 22 23 23 20 17 13 11 8 7 5 2 2 6 11 16 19 20 21 21 20 19 20 22 19 21 21 16 17 18 18 15
64 37 16 10 3 11 6 12 4 5 3 13 11 8 9 15 18 13 7 12 12 13 20 21 18 16 14 12 9 5 3 6 8 8 9 12 15 15 16 17 18 20 20 20 20 18 16 26 25 19 18 24 19 17
38 11 7 9 10 3 6 11 15 17 21 24 11 12 10 7 9 14 10 12 16 18 18 18 15 12 8 4 2 5 8 10 12 14 16 16 16 15 13 14 14 20 25 20 15 12 15 24 26 23 22 26 27 27
11 14 10 15 17 14 14 10 10 8 10 15 12 8 6 4 6 5 7 13 19 19 19 16 11 6 5 4 4 5 10 8 12 13 8 5 6 7 9 8 8 12 11 16 11 6 11 18 23 28 28 25 20 18
12 11 6 4 6 3 6 18 19 22 17 10 9 8 6 7 7 5 6 12 13 12 10 8 6 5 5 7 8 6 8 7 4 4 3 5 10 11 5 4 1 4 6 7 17 15 18 21 28 27 23 22 25 22
9 14 10 8 7 14 17 21 22 16 16 11 9 7 5 6 5 7 10 11 11 9 6 5 4 6 9 9 8 6 2 2 3 5 9 9 5 3 1 6 5 6 4 13 12 14 8 17 16 23 23 25 23 22
12 18 15 20 25 23 13 9 9 10 9 10 2 5 5 5 6 8 8 8 7 4 4 9 13 13 13 11 7 4 6 7 7 6 4 5 6 6 7 11 13 13 16 19 22 22 22 23 26 28 29 29 33 32
14 14 22 28 19 17 17 12 11 12 11 8 9 9 9 12 11 10 7 5 3 8 13 14 9 16 9 5 9 7 12 7 4 4 5 8 8 6 11 19 25 29 23 21 25 31 32 33 33 32 30 32 32 32
17 16 14 21 14 12 14 13 15 12 14 17 11 10 13 10 6 5 2 3 5 7 8 10 14 15 11 8 5 7 10 9 8 11 14 15 16 14 15 13 14 12 11 15 20 26 32 34 41 42 43 40 36 37
11 14 19 19 14 17 14 11 11 11 11 13 15 18 16 12 17 18 17 14 12 7 8 11 14 14 13 11 8 2 3 5 12 18 21 20 19 19 19 21 22 20 19 19 21 25 29 32 35 39 41 44 45 44
16 14 12 18 17 14 14 14 14 22 21 26 29 31 31 30 17 16 15 11 9 8 8 8 8 10 12 11 9 11 17 16 16 17 18 19 21 24 26 27 28 26 27 30 30 30 30 31 33 36 40 43 44 46
16 19 20 16 10 9 11 8 10 17 29 30 24 18 17 22 18 12 10 17 16 10 8 10 11 12 14 15 15 17 16 16 20 22 23 23 24 25 29 31 30 32 35 37 38 37 36 35 34 33 33 35 38 41
Wind_Direction_500mb
288 293 290 272 256 240 227 207 223 227 226 233 239 231 242 267 290 298 283 269 226 271 277 273 275 287 320 349 336 6 323 94 272 264 252 205 266 91 261 4 308 272 260 220 239 243 232 23 152 293 19 359 349 347
286 294 297 280 261 223 216 213 222 219 221 226 230 224 233 252 276 291 300 282 256 255 264 282 276 274 263 268 284 284 7 227 329 271 232 206 201 212 322 252 154 239 321 332 303 43 61 56 79 81 17 352 352 342
283 287 289 285 261 205 214 216 216 221 220 224 224 221 226 247 264 275 282 287 287 279 294 262 273 260 241 238 229 278 90 349 30 340 330 335 262 280 230 233 211 175 198 252 238 93 62 66 98 11 356 351 350 350
275 280 280 280 229 203 215 216 214 218 218 220 221 223 231 243 255 267 278 277 266 287 279 267 296 305 242 227 216 217 287 322 321 315 271 266 273 206 278 33 274 45 179 160 132 119 127 86 41 5 353 352 352 345
272 273 277 272 218 210 217 218 221 212 213 218 220 220 222 231 252 278 277 262 253 246 319 304 299 260 227 202 187 202 224 265 275 251 236 249 312 248 244 269 222 174 116 253 46 59 346 40 5 355 349 346 345 347
265 271 271 263 236 216 221 214 213 215 211 209 212 217 214 216 240 319 290 271 241 226 284 286 327 250 196 181 177 188 220 260 264 261 243 213 310 270 231 237 77 136 123 21 60 38 11 335 354 4 342 338 334 341
262 265 266 258 240 215 211 209 218 206 204 202 204 205 198 213 220 221 260 295 288 195 261 284 233 192 168 167 180 205 240 248 263 247 236 262 195 249 264 260 138 152 127 90 53 353 246 358 323 320 315 321 322 328
256 256 254 250 234 215 212 212 207 198 196 195 196 193 195 219 243 256 248 264 254 217 258 270 259 198 185 190 192 206 229 213 210 271 212 236 167 234 258 88 113 150 170 155 320 293 303 310 312 308 302 315 305 296
249 252 248 242 229 207 199 196 194 191 187 185 179 176 194 220 216 207 238 242 207 198 289 237 266 175 175 179 170 173 214 207 140 230 210 230 209 221 75 43 266 226 239 228 287 318 328 327 326 322 318 313 293 359
244 246 241 237 211 197 193 192 186 181 180 173 157 161 202 198 197 159 141 148 187 206 232 258 248 232 194 178 180 182 200 211 205 145 155 235 218 101 54 335 301 292 261 235 257 280 339 343 347 338 357 20 107 96
240 240 232 225 202 188 192 185 178 177 172 151 155 175 186 157 135 184 207 210 193 219 217 235 238 253 204 203 170 227 190 171 239 131 252 187 210 122 73 59 42 45 141 181 185 95 43 42 38 50 55 74 89 91
232 228 223 214 191 189 196 188 181 178 178 171 146 152 149 188 198 209 203 195 220 230 188 217 206 212 164 195 217 186 222 193 250 123 242 235 100 120 117 87 69 79 141 169 167 153 100 91 101 94 80 84 82 65
226 216 205 186 183 188 200 184 183 175 157 138 162 181 184 178 242 219 198 196 205 196 191 192 179 168 176 203 195 195 207 207 126 224 241 29 128 136 102 94 72 67 89 128 129 134 138 130 118 99 85 59 68 48
215 201 180 185 187 183 184 184 178 155 135 155 181 193 215 194 224 198 225 207 186 243 177 192 169 190 175 188 151 199 81 208 228 237 218 124 154 146 127 105 108 90 99 117 119 132 149 161 157 128 88 64 13 353
197 186 184 182 183 173 180 175 168 157 152 196 200 212 214 231 219 210 232 245 231 201 188 188 194 197 167 154 193 135 191 227 228 229 108 137 145 148 166 171 175 156 145 129 112 107 99 283 257 163 104 37 5 352
187 184 186 180 173 183 181 168 165 172 233 219 233 237 234 233 237 239 234 242 218 222 191 203 187 201 180 179 186 206 209 216 141 142 135 147 152 157 161 169 176 197 196 179 161 299 283 273 262 247 216 166 333 358
183 183 177 177 186 184 166 157 161 185 227 237 228 229 258 293 275 260 255 232 199 189 195 182 192 156 114 206 213 222 223 88 138 141 150 159 160 164 172 184 131 75 255 274 297 295 293 277 216 203 190 194 141 47
180 186 175 173 174 160 152 153 157 199 230 234 242 209 227 255 272 266 243 207 187 197 199 195 134 185 198 192 180 139 141 143 140 149 157 165 170 181 181 185 181 186 331 319 295 283 279 224 191 195 196 194 199 155
167 179 174 176 157 138 126 179 199 228 232 232 243 261 263 263 254 249 235 207 201 193 182 187 160 182 148 100 116 134 147 158 159 162 167 173 183 188 192 197 208 236 290 307 289 271 268 230 223 205 194 192 201 178
153 174 167 154 151 125 135 153 186 237 263 199 240 240 234 269 272 214 189 179 170 175 158 104 79 88 101 122 121 133 151 159 161 171 184 200 210 207 211 216 230 231 265 290 289 265 250 226 228 203 198 200 186 175
155 158 160 158 161 117 150 168 177 210 244 237 230 161 311 324 147 141 146 163 156 45 87 94 107 107 110 112 115 121 126 136 157 197 200 210 220 226 232 232 232 238 254 274 275 261 242 233 221 199 199 193 188 173
151 158 153 154 154 222 234 182 221 175 198 163 100 248 271 107 93 80 102 179 76 71 97 122 117 113 110 113 113 109 143 143 150 157 276 258 254 247 243 243 243 246 251 265 267 255 246 237 208 209 200 193 193 189
142 132 127 117 219 222 203 161 134 121 101 127 160 250 156 181 193 188 101 75 97 108 121 119 120 115 123 125 131 140 156 204 238 255 283 282 270 258 248 244 242 248 251 258 261 252 231 210 205 194 191 192 200 212
144 133 139 208 229 199 179 146 206 197 198 196 175 118 114 80 103 97 94 100 112 118 124 128 125 121 125 125 228 258 253 253 269 277 285 280 266 252 242 247 248 246 251 263 243 240 230 205 202 190 189 203 216 223
166 207 201 208 207 193 188 198 185 133 94 105 90 81 74 96 81 93 120 140 135 132 136 135 130 100 20 1 319 289 282 260 276 282 267 228 237 236 254 260 255 247 255 233 228 191 177 174 181 184 217 237 238 253
224 183 210 28 110 108 76 102 93 96 96 83 70 81 105 96 78 92 93 136 136 131 121 129 101 60 21 355 330 310 298 289 233 213 151 121 125 108 97 92 19 241 223 221 173 172 193 201 218 230 239 235 249 267
28 40 26 29 56 101 95 84 81 78 73 82 93 96 83 76 76 70 104 116 122 113 88 47 18 335 322 317 324 309 267 176 164 137 136 141 152 184 276 333 2 47 143 178 197 206 234 229 242 253 259 264 262 257
30 37 58 73 73 61 76 57 49 46 51 24 56 55 65 54 73 77 96 114 105 78 11 334 321 311 294 275 260 221 170 143 120 131 214 242 256 272 290 313 312 298 256 239 240 247 248 257 269 271 272 271 263 259
51 44 76 67 67 57 40 47 59 57 29 13 69 64 73 72 80 88 96 108 49 348 337 337 337 332 319 254 199 182 178 184 233 252 311 344 340 295 274 287 297 295 270 268 263 258 254 256 263 270 276 276 269 267
32 33 75 51 51 52 44 46 60 53 51 54 68 100 98 79 32 20 8 335 336 357 27 23 17 29 59 103 135 168 206 228 273 300 323 324 302 313 316 313 325 328 303 278 273 273 274 270 270 267 267 268 262 265
35 59 64 69 67 54 55 61 67 73 78 70 69 78 79 77 69 64 73 81 84 71 35 45 59 48 50 62 65 72 248 261 279 282 288 295 291 294 300 301 299 299 295 292 291 289 285 280 275 270 265 264 265 262
40 40 78 94 85 47 49 68 76 86 85 90 88 92 91 87 83 78 67 60 34 24 7 5 353 350 353 345 329 315 320 303 299 302 301 292 289 291 292 296 291 290 281 287 292 297 299 295 290 282 276 273 272 269
75 85 93 86 16 30 26 41 68 89 89 88 89 89 74 73 72 68 43 37 31 13 332 319 326 332 326 333 326 321 320 313 310 316 308 302 301 302 304 304 300 292 288 283 280 287 293 296 297 296 292 287 284 282
Wind_Speed_850mb
28 27 25 24 27 26 28 34 33 33 31 24 24 21 18 16 12 11 13 13 11 15 30 24 20 18 19 9 10 16 5 3 9 7 6 2 7 4 5 4 9 13 11 14 14 14 25 14 8 8 10 7 17 20
27 26 25 25 26 27 28 33 35 35 33 27 25 23 19 16 13 11 7 11 14 18 22 27 39 43 42 32 24 5 1 5 6 6 3 3 9 6 6 11 6 9 7 10 6 10 7 12 18 11 12 15 18 22
25 24 24 22 21 27 27 34 36 38 35 29 27 28 21 16 13 12 13 14 14 19 34 23 14 15 21 21 19 10 3 7 3 5 6 2 8 7 12 10 4 7 4 5 8 8 9 5 3 7 17 16 17 19
25 22 22 20 19 28 29 34 33 35 38 33 28 29 24 19 13 13 13 14 12 12 12 0 6 12 16 16 15 20 13 10 9 8 11 8 10 6 6 7 11 7 11 7 5 7 8 9 10 11 14 12 16 22
25 22 20 19 24 29 30 34 36 37 35 33 28 29 26 20 13 13 17 18 20 8 13 21 31 12 13 17 14 13 10 8 11 12 10 10 6 8 6 8 9 16 4 7 9 10 5 8 12 15 13 14 19 24
25 22 19 19 22 30 32 33 32 30 39 33 27 28 24 16 12 8 6 9 22 21 11 7 9 7 9 19 13 10 8 9 13 12 13 6 1 8 9 14 14 10 7 9 8 8 5 7 7 11 13 17 19 20
25 23 23 20 20 32 35 34 35 35 38 32 28 28 22 16 14 9 4 7 6 16 9 11 7 9 14 15 11 9 9 9 11 7 15 13 11 9 8 13 20 12 9 7 6 7 3 6 12 19 18 17 16 13
26 26 24 21 23 30 33 43 30 40 38 33 31 25 17 13 13 11 19 15 6 8 10 7 7 12 19 17 15 12 11 12 11 6 6 14 8 10 9 13 6 6 5 0 3 4 11 18 19 18 14 13 10 9
29 28 25 21 23 28 30 34 39 43 40 36 31 21 15 8 9 12 10 12 17 10 10 8 9 9 22 12 7 11 8 10 5 10 8 7 10 10 10 3 2 4 6 3 4 8 8 12 16 10 9 8 4 3
30 29 26 23 26 30 35 38 40 47 44 40 30 13 10 11 14 12 2 4 9 12 13 12 12 8 21 21 20 12 12 5 9 6 3 10 7 12 5 5 9 13 15 15 12 7 11 11 10 14 9 5 12 20
29 29 28 26 29 38 42 46 54 56 49 40 16 9 8 19 8 11 9 10 14 10 16 17 20 8 13 15 11 8 5 5 7 9 7 7 7 13 3 4 5 5 5 11 6 1 5 5 6 9 11 14 17 19
27 27 26 29 33 47 46 53 62 58 41 36 23 16 15 11 11 10 9 11 11 9 13 20 17 14 8 4 9 10 6 6 4 7 7 7 10 12 8 7 7 5 5 8 8 6 5 9 10 10 11 10 12 11
28 28 25 28 35 44 41 56 63 54 43 45 13 15 12 12 4 13 19 11 9 11 13 17 13 12 8 10 5 8 9 5 5 7 6 7 18 12 7 5 6 6 5 7 7 9 11 9 6 4 4 4 5 8
29 29 31 35 39 44 46 65 66 62 43 12 14 5 12 11 12 12 16 14 6 1 10 19 20 11 7 11 3 7 4 6 6 7 5 10 15 11 6 4 4 6 7 8 7 7 7 8 7 5 6 3 3 4
31 37 40 40 40 51 56 67 62 58 12 12 12 10 16 21 10 11 18 15 12 5 14 16 9 9 8 7 4 4 8 8 5 2 5 17 16 13 10 7 5 6 7 7 7 6 1 6 8 2 2 3 4 6
36 45 48 45 45 56 68 65 74 33 4 7 11 12 11 14 19 22 18 20 17 10 16 15 10 10 11 5 11 13 6 7 7 7 16 21 20 16 13 10 6 6 6 4 4 3 8 10 8 7 3 1 2 3
45 26 50 56 50 63 76 63 34 11 8 8 15 22 19 14 14 16 12 21 18 17 14 11 11 9 6 9 9 2 4 6 14 17 17 21 24 21 14 9 5 5 2 8 8 8 8 6 7 10 8 3 1 2
36 36 52 68 69 69 57 23 11 12 13 20 15 9 12 16 19 19 12 19 19 21 17 6 10 10 7 8 6 9 11 13 11 16 20 25 22 18 17 15 10 3 4 8 10 10 10 9 10 11 10 7 2 3
32 50 67 79 91 49 13 19 9 8 19 13 15 16 12 15 17 19 15 18 17 16 11 10 5 7 6 4 10 14 17 15 15 15 18 20 19 19 21 19 13 9 8 10 9 10 10 12 14 14 12 6 7 7
41 62 90 77 53 12 9 11 15 6 9 11 8 9 8 6 9 8 15 21 18 13 6 3 5 10 11 14 12 12 12 12 15 16 15 17 17 18 19 19 18 13 10 10 12 15 15 14 17 20 14 12 12 9
75 78 77 58 27 5 7 11 12 8 6 4 5 4 11 7 7 16 17 14 8 4 8 11 16 15 18 19 17 17 15 11 8 7 10 12 16 19 19 18 17 16 16 16 17 17 18 17 19 22 17 16 14 13
62 65 57 32 8 4 8 13 6 10 5 4 14 7 10 8 9 13 12 6 10 11 13 22 23 23 20 17 13 11 8 7 5 2 2 6 11 16 19 20 21 21 20 19 20 22 19 21 21 16 17 18 18 15
64 37 16 10 3 11 6 12 4 5 3 13 11 8 9 15 18 13 7 12 12 13 20 21 18 16 14 12 9 5 3 6 8 8 9 12 15 15 16 17 18 20 20 20 20 18 16 26 25 19 18 24 19 17
38 11 7 9 10 3 6 11 15 17 21 24 11 12 10 7 9 14 10 12 16 18 18 18 15 12 8 4 2 5 8 10 12 14 16 16 16 15 13 14 14 20 25 20 15 12 15 24 26 23 22 26 27 27
11 14 10 15 17 14 14 10 10 8 10 15 12 8 6 4 6 5 7 13 19 19 19 16 11 6 5 4 4 5 10 8 12 13 8 5 6 7 9 8 8 12 11 16 11 6 11 18 23 28 28 25 20 18
12 11 6 4 6 3 6 18 19 22 17 10 9 8 6 7 7 5 6 12 13 12 10 8 6 5 5 7 8 6 8 7 4 4 3 5 10 11 5 4 1 4 6 7 17 15 18 21 28 27 23 22 25 22
9 14 10 8 7 14 17 21 22 16 16 11 9 7 5 6 5 7 10 11 11 9 6 5 4 6 9 9 8 6 2 2 3 5 9 9 5 3 1 6 5 6 4 13 12 14 8 17 16 23 23 25 23 22
12 18 15 20 25 23 13 9 9 10 9 10 2 5 5 5 6 8 8 8 7 4 4 9 13 13 13 11 7 4 6 7 7 6 4 5 6 6 7 11 13 13 16 19 22 22 22 23 26 28 29 29 33 32
14 14 22 28 19 17 17 12 11 12 11 8 9 9 9 12 11 10 7 5 3 8 13 14 9 16 9 5 9 7 12 7 4 4 5 8 8 6 11 19 25 29 23 21 25 31 32 33 33 32 30 32 32 32
17 16 14 21 14 12 14 13 15 12 14 17 11 10 13 10 6 5 2 3 5 7 8 10 14 15 11 8 5 7 10 9 8 11 14 15 16 14 15 13 14 12 11 15 20 26 32 34 41 42 43 40 36 37
11 14 19 19 14 17 14 11 11 11 11 13 15 18 16 12 17 18 17 14 12 7 8 11 14 14 13 11 8 2 3 5 12 18 21 20 19 19 19 21 22 20 19 19 21 25 29 32 35 39 41 44 45 44
16 14 12 18 17 14 14 14 14 22 21 26 29 31 31 30 17 16 15 11 9 8 8 8 8 10 12 11 9 11 17 16 16 17 18 19 21 24 26 27 28 26 27 30 30 30 30 31 33 36 40 43 44 46
16 19 20 16 10 9 11 8 10 17 29 30 24 18 17 22 18 12 10 17 16 10 8 10 11 12 14 15 15 17 16 16 20 22 23 23 24 25 29 31 30 32 35 37 38 37 36 35 34 33 33 35 38 41
Wind_Direction_850mb
288 293 290 272 256 240 227 207 223 227 226 233 239 231 242 267 290 298 283 269 226 271 277 273 275 287 320 349 336 6 323 94 272 264 252 205 266 91 261 4 308 272 260 220 239 243 232 23 152 293 19 359 349 347
286 294 297 280 261 223 216 213 222 219 221 226 230 224 233 252 276 291 300 282 256 255 264 282 276 274 263 268 284 284 7 227 329 271 232 206 201 212 322 252 154 239 321 332 303 43 61 56 79 81 17 352 352 342
283 287 289 285 261 205 214 216 216 221 220 224 224 221 226 247 264 275 282 287 287 279 294 262 273 260 241 238 229 278 90 349 30 340 330 335 262 280 230 233 211 175 198 252 238 93 62 66 98 11 356 351 350 350
275 280 280 280 229 203 215 216 214 218 218 220 221 223 231 243 255 267 278 277 266 287 279 267 296 305 242 227 216 217 287 322 321 315 271 266 273 206 278 33 274 45 179 160 132 119 127 86 41 5 353 352 352 345
272 273 277 272 218 210 217 218 221 212 213 218 220 220 222 231 252 278 277 262 253 246 319 304 299 260 227 202 187 202 224 265 275 251 236 249 312 248 244 269 222 174 116 253 46 59 346 40 5 355 349 346 345 347
265 271 271 263 236 216 221 214 213 215 211 209 212 217 214 216 240 319 290 271 241 226 284 286 327 250 196 181 177 188 220 260 264 261 243 213 310 270 231 237 77 136 123 21 60 38 11 335 354 4 342 338 334 341
262 265 266 258 240 215 211 209 218 206 204 202 204 205 198 213 220 221 260 295 288 195 261 284 233 192 168 167 180 205 240 248 263 247 236 262 195 249 264 260 138 152 127 90 53 353 246 358 323 320 315 321 322 328
256 256 254 250 234 215 212 212 207 198 196 195 196 193 195 219 243 256 248 264 254 217 258 270 259 198 185 190 192 206 229 213 210 271 212 236 167 234 258 88 113 150 170 155 320 293 303 310 312 308 302 315 305 296
249 252 248 242 229 207 199 196 194 191 187 185 179 176 194 220 216 207 238 242 207 198 289 237 266 175 175 179 170 173 214 207 140 230 210 230 209 221 75 43 266 226 239 228 287 318 328 327 326 322 318 313 293 359
244 246 241 237 211 197 193 192 186 181 180 173 157 161 202 198 197 159 141 148 187 206 232 258 248 232 194 178 180 182 200 211 205 145 155 235 218 101 54 335 301 292 261 235 257 280 339 343 347 338 357 20 107 96
240 240 232 225 202 188 192 185 178 177 172 151 155 175 186 157 135 184 207 210 193 219 217 235 238 253 204 203 170 227 190 171 239 131 252 187 210 122 73 59 42 45 141 181 185 95 43 42 38 50 55 74 89 91
232 228 223 214 191 189 196 188 181 178 178 171 146 152 149 188 198 209 203 195 220 230 188 217 206 212 164 195 217 186 222 193 250 123 242 235 100 120 117 87 69 79 141 169 167 153 100 91 101 94 80 84 82 65
226 216 205 186 183 188 200 184 183 175 157 138 162 181 184 178 242 219 198 196 205 196 191 192 179 168 176 203 195 195 207 207 126 224 241 29 128 136 102 94 72 67 89 128 129 134 138 130 118 99 85 59 68 48
215 201 180 185 187 183 184 184 178 155 135 155 181 193 215 194 224 198 225 207 186 243 177 192 169 190 175 188 151 199 81 208 228 237 218 124 154 146 127 105 108 90 99 117 119 132 149 161 157 128 88 64 13 353
197 186 184 182 183 173 180 175 168 157 152 196 200 212 214 231 219 210 232 245 231 201 188 188 194 197 167 154 193 135 191 227 228 229 108 137 145 148 166 171 175 156 145 129 112 107 99 283 257 163 104 37 5 352
187 184 186 180 173 183 181 168 165 172 233 219 233 237 234 233 237 239 234 242 218 222 191 203 187 201 180 179 186 206 209 216 141 142 135 147 152 157 161 169 176 197 196 179 161 299 283 273 262 247 216 166 333 358
183 183 177 177 186 184 166 157 161 185 227 237 228 229 258 293 275 260 255 232 199 189 195 182 192 156 114 206 213 222 223 88 138 141 150 159 160 164 172 184 131 75 255 274 297 295 293 277 216 203 190 194 141 47
180 186 175 173 174 160 152 153 157 199 230 234 242 209 227 255 272 266 243 207 187 197 199 195 134 185 198 192 180 139 141 143 140 149 157 165 170 181 181 185 181 186 331 319 295 283 279 224 191 195 196 194 199 155
167 179 174 176 157 138 126 179 199 228 232 232 243 261 263 263 254 249 235 207 201 193 182 187 160 182 148 100 116 134 147 158 159 162 167 173 183 188 192 197 208 236 290 307 289 271 268 230 223 205 194 192 201 178
153 174 167 154 151 125 135 153 186 237 263 199 240 240 234 269 272 214 189 179 170 175 158 104 79 88 101 122 121 133 151 159 161 171 184 200 210 207 211 216 230 231 265 290 289 265 250 226 228 203 198 200 186 175
155 158 160 158 161 117 150 168 177 210 244 237 230 161 311 324 147 141 146 163 156 45 87 94 107 107 110 112 115 121 126 136 157 197 200 210 220 226 232 232 232 238 254 274 275 261 242 233 221 199 199 193 188 173
151 158 153 154 154 222 234 182 221 175 198 163 100 248 271 107 93 80 102 179 76 71 97 122 117 113 110 113 113 109 143 143 150 157 276 258 254 247 243 243 243 246 251 265 267 255 246 237 208 209 200 193 193 189
142 132 127 117 219 222 203 161 134 121 101 127 160 250 156 181 193 188 101 75 97 108 121 119 120 115 123 125 131 140 156 204 238 255 283 282 270 258 248 244 242 248 251 258 261 252 231 210 205 194 191 192 200 212
144 133 139 208 229 199 179 146 206 197 198 196 175 118 114 80 103 97 94 100 112 118 124 128 125 121 125 125 228 258 253 253 269 277 285 280 266 252 242 247 248 246 251 263 243 240 230 205 202 190 189 203 216 223
166 207 201 208 207 193 188 198 185 133 94 105 90 81 74 96 81 93 120 140 135 132 136 135 130 100 20 1 319 289 282 260 276 282 267 228 237 236 254 260 255 247 255 233 228 191 177 174 181 184 217 237 238 253
224 183 210 28 110 108 76 102 93 96 96 83 70 81 105 96 78 92 93 136 136 131 121 129 101 60 21 355 330 310 298 289 233 213 151 121 125 108 97 92 19 241 223 221 173 172 193 201 218 230 239 235 249 267
28 40 26 29 56 101 95 84 81 78 73 82 93 96 83 76 76 70 104 116 122 113 88 47 18 335 322 317 324 309 267 176 164 137 136 141 152 184 276 333 2 47 143 178 197 206 234 229 242 253 259 264 262 257
30 37 58 73 73 61 76 57 49 46 51 24 56 55 65 54 73 77 96 114 105 78 11 334 321 311 294 275 260 221 170 143 120 131 214 242 256 272 290 313 312 298 256 239 240 247 248 257 269 271 272 271 263 259
51 44 76 67 67 57 40 47 59 57 29 13 69 64 73 72 80 88 96 108 49 348 337 337 337 332 319 254 199 182 178 184 233 252 311 344 340 295 274 287 297 295 270 268 263 258 254 256 263 270 276 276 269 267
32 33 75 51 51 52 44 46 60 53 51 54 68 100 98 79 32 20 8 335 336 357 27 23 17 29 59 103 135 168 206 228 273 300 323 324 302 313 316 313 325 328 303 278 273 273 274 270 270 267 267 268 262 265
35 59 64 69 67 54 55 61 67 73 78 70 69 78 79 77 69 64 73 81 84 71 35 45 59 48 50 62 65 72 248 261 279 282 288 295 291 294 300 301 299 299 295 292 291 289 285 280 275 270 265 264 265 262
40 40 78 94 85 47 49 68 76 86 85 90 88 92 91 87 83 78 67 60 34 24 7 5 353 350 353 345 329 315 320 303 299 302 301 292 289 291 292 296 291 290 281 287 292 297 299 295 290 282 276 273 272 269
75 85 93 86 16 30 26 41 68 89 89 88 89 89 74 73 72 68 43 37 31 13 332 319 326 332 326 333 326 321 320 313 310 316 308 302 301 302 304 304 300 292 288 283 280 287 293 296 297 296 292 287 284 282